User: anonymous   Login
Location: Unspecified
(0.0000°N, 0.0000°E)
Time: 07:44:31
(UTC+00:00)
Language:

STARLINK-31674 - Orbit

View from above orbital plane
View from above orbital plane
View from above satellite
View from above satellite

Ground track
Ground track

The orbit is defined by the following mean orbital elements,

1 59517U          26145.56439391 +.00000000 +00000-0 +20421-4 0 00001
2 59517  43.0049 243.7896 0000936 256.5192 103.5556 15.27587880    02
Epoch (UTC): 25 May 2026 13:32:43
Eccentricity: 0.0000936
inclination: 43.0049°
perigee height: 482 km
apogee height: 484 km
right ascension of ascending node: 243.7896°
argument of perigee: 256.5192°
revolutions per day: 15.27587880
mean anomaly at epoch: 103.5556°

The dashed part of the orbit path shows where the satellite is in the earth's shadow,  

DLR